Dalzell, IL

4:13 PM CST on February 09, 2016 (GMT -0600)
Illinois Valley Regional-Duncan

Weather History for KVYS - February, 2013

Change the Weather History Date:

Tuesday, February 26, 2013

  Actual Average Record
Temperature  
Mean Temperature 34 °F -  
Max Temperature 35 °F 40 °F 64 °F (1976)
Min Temperature 32 °F 21 °F 0 °F (2014)
Degree Days  
Heating Degree Days 32    
Moisture  
Dew Point 30 °F    
Average Humidity 87    
Maximum Humidity 96    
Minimum Humidity 73    
Precipitation  
Precipitation 0.04 in - - ()
Sea Level Pressure  
Sea Level Pressure 29.61 in    
Wind  
Wind Speed 19 mph (ENE)    
Max Wind Speed 28 mph    
Max Gust Speed 36 mph    
Visibility 6 miles    
Events Rain , Snow    
Averages and records for this station are not official NWS values.
T = Trace of Precipitation, MM = Missing Value Source: NWS Daily Summary

Daily Weather History Graph

Daily Weather History Graph

Search for Another Location

Airport or City:

Trip Planner

Search our weather history database for the weather conditions in past years. The results will help you decide how hot, cold, wet, or windy it might be!

Date:

Astronomy

Feb. 26, 2013 Rise Set
Actual Time 6:35 AM CST 5:44 PM CST
Civil Twilight 6:07 AM CST 6:11 PM CST
Nautical Twilight 5:35 AM CST 6:44 PM CST
Astronomical Twilight 5:03 AM CST 7:16 PM CST
Moon 7:02 PM CST (2/26) 6:36 AM CST (2/26)
Length of Visible Light 12h 04m
Length of Day
11h 08m
Full, 99% of the Moon is Illuminated
Feb 26
Full
Mar 4
Last Quarter
Mar 11
New
Mar 19
First Quarter
Mar 27
Full

Hourly Weather History & Observations

Time (CST) Temp. Windchill Dew Point Humidity Pressure Visibility Wind Dir Wind Speed Gust Speed Precip Events Conditions
12:15 AM 34.7 °F 25.1 °F 29.3 °F 81% 29.90 in 10.0 mi ENE 15.0 mph - N/A   Clear
12:35 AM 34.7 °F 24.7 °F 29.3 °F 81% 29.88 in 10.0 mi ENE 16.1 mph - N/A   Clear
12:55 AM 34.7 °F 24.7 °F 29.3 °F 81% 29.87 in 10.0 mi ENE 16.1 mph - N/A   Clear
1:15 AM 34.7 °F 25.5 °F 29.3 °F 81% 29.85 in 10.0 mi ENE 13.8 mph 19.6 mph N/A   Clear
1:35 AM 34.7 °F 24.3 °F 29.3 °F 81% 29.82 in 10.0 mi ENE 17.3 mph 23.0 mph N/A   Scattered Clouds
1:55 AM 35.1 °F 24.5 °F 29.3 °F 80% 29.83 in 10.0 mi East 18.4 mph - N/A   Scattered Clouds
2:15 AM 34.9 °F 24.2 °F 29.1 °F 79% 29.82 in 10.0 mi ENE 18.4 mph - N/A   Mostly Cloudy
2:35 AM 34.9 °F 24.2 °F 28.9 °F 79% 29.79 in 10.0 mi ENE 18.4 mph 21.9 mph N/A   Mostly Cloudy
2:55 AM 34.7 °F 23.4 °F 28.9 °F 79% 29.77 in 10.0 mi ENE 20.7 mph 26.5 mph N/A   Scattered Clouds
3:15 AM 34.7 °F 24.0 °F 28.9 °F 79% 29.76 in 10.0 mi ENE 18.4 mph 24.2 mph N/A   Overcast
3:35 AM 34.9 °F 23.6 °F 28.8 °F 78% 29.75 in 10.0 mi ENE 20.7 mph - N/A   Overcast
3:55 AM 34.7 °F 24.3 °F 28.8 °F 79% 29.74 in 10.0 mi ENE 17.3 mph 26.5 mph N/A   Overcast
4:15 AM 34.7 °F 23.7 °F 28.9 °F 79% 29.71 in 10.0 mi ENE 19.6 mph 25.3 mph N/A   Overcast
4:35 AM 34.7 °F 23.1 °F 28.4 °F 78% 29.70 in 10.0 mi ENE 21.9 mph 29.9 mph N/A   Overcast
4:55 AM 34.7 °F 22.2 °F 28.4 °F 78% 29.69 in 10.0 mi ENE 25.3 mph 32.2 mph N/A   Overcast
5:15 AM 34.9 °F 22.7 °F 28.2 °F 77% 29.67 in 10.0 mi ENE 24.2 mph 34.5 mph N/A   Overcast
5:35 AM 34.7 °F 21.8 °F 28.0 °F 77% 29.65 in 10.0 mi ENE 27.6 mph 33.4 mph N/A   Overcast
5:55 AM 35.6 °F 23.7 °F 28.4 °F 75% 29.67 in 10.0 mi ENE 24.2 mph 34.5 mph N/A   Overcast
6:15 AM 35.1 °F 23.3 °F 27.5 °F 74% 29.70 in 10.0 mi East 23.0 mph 28.8 mph N/A   Overcast
6:35 AM 34.7 °F 23.7 °F 27.5 °F 75% 29.70 in 10.0 mi East 19.6 mph 26.5 mph N/A   Overcast
6:55 AM 34.7 °F 23.1 °F 27.3 °F 74% 29.67 in 10.0 mi ENE 21.9 mph 28.8 mph N/A   Overcast
7:15 AM 34.7 °F 23.4 °F 27.1 °F 74% 29.65 in 10.0 mi ENE 20.7 mph 32.2 mph N/A   Overcast
7:35 AM 34.9 °F 23.3 °F 27.3 °F 74% 29.65 in 10.0 mi ENE 21.9 mph 33.4 mph N/A   Overcast
7:55 AM 34.7 °F 23.4 °F 27.3 °F 74% 29.63 in 10.0 mi ENE 20.7 mph 28.8 mph N/A   Overcast
8:15 AM 34.9 °F 23.3 °F 27.5 °F 74% 29.62 in 10.0 mi ENE 21.9 mph 27.6 mph N/A   Overcast
8:35 AM 35.1 °F 22.7 °F 27.3 °F 73% 29.60 in 10.0 mi ENE 25.3 mph 33.4 mph N/A   Overcast
8:55 AM 35.1 °F 22.2 °F 27.5 °F 74% 29.57 in 3.0 mi ENE 27.6 mph 35.7 mph N/A Snow Light Snow
9:15 AM 35.2 °F 23.0 °F 27.9 °F 74% 29.55 in 10.0 mi ENE 25.3 mph 35.7 mph N/A   Overcast
9:35 AM 35.1 °F 23.3 °F 28.2 °F 76% 29.56 in 10.0 mi ENE 23.0 mph 32.2 mph N/A   Overcast
9:55 AM 35.4 °F 26.4 °F 28.4 °F 76% 29.60 in 2.5 mi East 13.8 mph 18.4 mph N/A Snow Light Snow
10:15 AM 34.0 °F 25.5 °F 30.2 °F 86% 29.59 in 0.5 mi ENE 11.5 mph 21.9 mph N/A Snow Snow
10:35 AM 33.1 °F 21.9 °F 30.9 °F 92% 29.57 in 0.5 mi ENE 18.4 mph - N/A Snow Light Snow
10:55 AM 32.7 °F 20.4 °F 31.1 °F 94% 29.56 in 0.5 mi NE 21.9 mph 26.5 mph N/A Snow Light Snow
11:15 AM 32.5 °F 20.5 °F 31.3 °F 95% 29.55 in 0.8 mi NE 20.7 mph 28.8 mph N/A Snow Light Snow
11:35 AM 32.5 °F 19.6 °F 31.5 °F 96% 29.53 in 0.8 mi NE 24.2 mph 29.9 mph N/A Snow Light Snow
11:55 AM 32.5 °F 19.4 °F 31.6 °F 96% 29.52 in 0.8 mi NE 25.3 mph 32.2 mph N/A Snow Light Snow
12:15 PM 32.5 °F 19.4 °F 31.6 °F 96% 29.52 in 0.8 mi NE 25.3 mph 28.8 mph N/A Snow Light Snow
12:35 PM 32.5 °F 19.9 °F 31.5 °F 96% 29.51 in 1.0 mi NE 23.0 mph 32.2 mph N/A Snow Light Snow
12:55 PM 32.5 °F 19.9 °F 31.5 °F 96% 29.50 in 1.0 mi NE 23.0 mph 29.9 mph 0.01 in Snow Light Snow
1:15 PM 32.5 °F 20.5 °F 31.6 °F 96% 29.50 in 1.0 mi NE 20.7 mph 28.8 mph 0.01 in Snow Light Snow
1:35 PM 32.7 °F 20.7 °F 31.5 °F 95% 29.50 in 1.2 mi NE 20.7 mph 28.8 mph 0.01 in Snow Light Snow
1:55 PM 32.7 °F 21.1 °F 31.5 °F 95% 29.50 in 0.8 mi NE 19.6 mph - 0.02 in Snow Light Snow
2:15 PM 32.5 °F 20.8 °F 31.5 °F 96% 29.50 in 1.0 mi NE 19.6 mph 27.6 mph N/A Snow Light Snow
2:35 PM 32.9 °F 20.1 °F 31.8 °F 96% 29.50 in 1.8 mi NE 24.2 mph 27.6 mph 0.01 in Snow Light Snow
2:55 PM 33.1 °F 20.1 °F 31.8 °F 95% 29.50 in 2.0 mi NE 25.3 mph 28.8 mph 0.01 in Snow Light Snow
3:15 PM 33.1 °F 19.8 °F 31.6 °F 94% 29.50 in 3.0 mi NE 26.5 mph 32.2 mph N/A   Overcast
3:35 PM 33.8 °F 21.3 °F 32.0 °F 93% 29.50 in 4.0 mi NE 24.2 mph 32.2 mph N/A   Overcast
3:55 PM 33.1 °F 20.6 °F 31.6 °F 94% 29.50 in 4.0 mi NE 23.0 mph 27.6 mph N/A Rain Light Rain
4:15 PM 33.1 °F 20.9 °F 31.6 °F 94% 29.50 in 3.0 mi NE 21.9 mph 29.9 mph N/A Snow Light Snow
4:35 PM 33.1 °F 20.9 °F 31.6 °F 94% 29.51 in 1.8 mi NE 21.9 mph 28.8 mph N/A Snow Light Snow
4:55 PM 32.9 °F 20.7 °F 31.8 °F 96% 29.51 in 2.0 mi NE 21.9 mph 29.9 mph N/A Snow Light Snow
5:15 PM 32.9 °F 21.3 °F 32.0 °F 96% 29.52 in 0.5 mi NE 19.6 mph 24.2 mph N/A Snow Light Snow
5:35 PM 33.1 °F 21.5 °F 32.0 °F 96% 29.53 in 1.2 mi NE 19.6 mph - N/A Snow Light Snow
5:55 PM 33.1 °F 21.5 °F 32.0 °F 96% 29.54 in 2.5 mi NE 19.6 mph - N/A Snow Light Snow
6:15 PM 33.1 °F 21.9 °F 32.0 °F 96% 29.54 in 2.5 mi NE 18.4 mph 23.0 mph N/A Snow Light Snow
6:35 PM 33.1 °F 22.2 °F 32.0 °F 96% 29.55 in 2.0 mi NE 17.3 mph - N/A Snow Light Snow
6:55 PM 33.1 °F 21.9 °F 32.0 °F 96% 29.54 in 2.5 mi NE 18.4 mph - N/A Snow Light Snow
7:15 PM 33.1 °F 21.9 °F 32.0 °F 96% 29.54 in 3.0 mi NE 18.4 mph - N/A Snow Light Snow
7:35 PM 33.3 °F 22.5 °F 32.0 °F 95% 29.54 in 5.0 mi NE 17.3 mph - N/A Snow Light Snow
7:55 PM 33.3 °F 22.8 °F 32.0 °F 95% 29.53 in 4.0 mi NE 16.1 mph - N/A Snow Light Snow
8:15 PM 33.4 °F 22.3 °F 32.0 °F 94% 29.53 in 7.0 mi NE 18.4 mph - N/A Snow Light Snow
8:35 PM 33.4 °F 22.7 °F 32.0 °F 94% 29.53 in 5.0 mi NE 17.3 mph - N/A Snow Light Snow
8:55 PM 33.8 °F 24.3 °F 32.0 °F 93% 29.54 in 7.0 mi NE 13.8 mph 20.7 mph N/A   Overcast
9:15 PM 33.8 °F 23.9 °F 32.0 °F 93% 29.55 in 7.0 mi NE 15.0 mph 19.6 mph N/A Rain Light Rain
9:35 PM 34.0 °F 24.6 °F 32.0 °F 92% 29.55 in 7.0 mi NE 13.8 mph - N/A   Overcast
9:55 PM 34.0 °F 24.6 °F 32.0 °F 92% 29.54 in 4.0 mi NE 13.8 mph - N/A Snow Light Snow
10:15 PM 33.8 °F 24.8 °F 32.0 °F 93% 29.55 in 3.0 mi ENE 12.7 mph 17.3 mph N/A Snow Light Snow
10:35 PM 33.4 °F 24.3 °F 32.0 °F 94% 29.55 in 4.0 mi ENE 12.7 mph - N/A Snow Light Snow
10:55 PM 33.3 °F 25.1 °F 32.0 °F 95% 29.55 in 4.0 mi ENE 10.4 mph - N/A Snow Light Snow
11:15 PM 33.3 °F 25.1 °F 32.0 °F 95% 29.55 in 5.0 mi ENE 10.4 mph - N/A Snow Light Snow
11:35 PM 33.3 °F 25.7 °F 32.0 °F 95% 29.55 in 5.0 mi ENE 9.2 mph - N/A Rain Light Rain
11:55 PM 33.3 °F 25.7 °F 32.0 °F 95% 29.55 in 7.0 mi ENE 9.2 mph - N/A   Overcast